Location: San Vito
(41.8833°N, 12.9833°E)
Time: 00:10:49
(UTC+00:00)

NOSS 3-3 (C) - Pass Details

Date: 17 November 2019
Orbit: 844 x 1368 km, 63.4° (Epoch: 30 November)

Event Time Altitude Azimuth Distance (km) Brightness Sun altitude
Exits shadow 03:04:23 53° 136° (SE) 1,115 4.4 -32.5°
Maximum altitude 03:04:51 54° 118° (ESE) 1,104 4.4 -32.4°
Drops below altitude 10° 03:11:05 10° 43° (NE) 2,778 6.9 -31.3°
Sets 03:13:53 0° 39° (NE) 3,813 7.6 -30.7°
